Location: ????????
(48.4751°N, 37.6926°E)
Time: 21:09:54
(UTC+00:00)

SKYMED 2 - Pass Details

Date: 20 January 2021
Orbit: 621 x 623 km, 97.9° (Epoch: 02 March)

Event Time Altitude Azimuth Distance (km) Brightness Sun altitude
Exits shadow 15:29:48 - 16° (NNE) 2,806 6.6 -13.1°
Reaches altitude 10° 15:31:46 10° 19° (NNE) 2,005 5.9 -13.4°
Maximum altitude 15:36:06 65° 102° (ESE) 689 3.5 -14.1°
Drops below altitude 10° 15:40:24 10° 184° (S) 1,988 6.4 -14.8°
Sets 15:42:36 0° 187° (S) 2,889 7.3 -15.2°
